| time (UTC) | temp F | wind direction | speed MPH | gust MPH | rain 1hr in | rain 24hr in | rain mn in | humidity % | barometer mb |
| 20260507214927 | 55 | 187 | 0.0 | 0.0 | 0.00 | 0.00 | 0.00 | 83 | 1016.8 |
| 20260507214417 | 54 | 187 | 0.0 | 0.0 | 0.00 | 0.00 | 0.00 | 82 | 1016.8 |
| 20260507213910 | 54 | 187 | 0.0 | 0.0 | 0.00 | 0.00 | 0.00 | 81 | 1016.8 |
| 20260507213410 | 54 | 187 | 0.0 | 0.0 | 0.00 | 0.00 | 0.00 | 81 | 1016.8 |
| 20260507212907 | 54 | 187 | 0.0 | 0.0 | 0.00 | 0.00 | 0.00 | 81 | 1016.7 |
| 20260507212402 | 55 | 187 | 0.0 | 0.0 | 0.00 | 0.00 | 0.00 | 81 | 1016.8 |
| 20260507211904 | 55 | 187 | 0.0 | 0.0 | 0.00 | 0.00 | 0.00 | 81 | 1016.9 |
| 20260507210850 | 55 | 187 | 0.0 | 0.0 | 0.00 | 0.00 | 0.00 | 80 | 1016.8 |
| 20260507210342 | 55 | 187 | 0.0 | 0.0 | 0.00 | 0.00 | 0.00 | 80 | 1016.8 |
| 20260507205836 | 55 | 187 | 0.0 | 0.0 | 0.00 | 0.00 | 0.00 | 79 | 1016.8 |
| 20260507205336 | 55 | 187 | 0.0 | 0.0 | 0.00 | 0.00 | 0.00 | 79 | 1016.7 |
| 20260507204836 | 55 | 187 | 0.0 | 0.0 | 0.00 | 0.00 | 0.00 | 78 | 1016.8 |
| 20260507204337 | 55 | 187 | 0.0 | 0.0 | 0.00 | 0.00 | 0.00 | 77 | 1016.7 |
| 20260507203333 | 55 | 187 | 0.0 | 0.0 | 0.00 | 0.00 | 0.00 | 75 | 1016.7 |
| 20260507202831 | 55 | 187 | 0.0 | 0.0 | 0.00 | 0.00 | 0.00 | 75 | 1016.8 |
| 20260507202328 | 56 | 187 | 0.0 | 0.0 | 0.00 | 0.00 | 0.00 | 75 | 1016.7 |
| 20260507201820 | 56 | 187 | 0.0 | 0.0 | 0.00 | 0.00 | 0.00 | 75 | 1016.7 |
| 20260507201316 | 56 | 187 | 0.0 | 0.0 | 0.00 | 0.00 | 0.00 | 74 | 1016.6 |
| 20260507200304 | 56 | 187 | 0.0 | 0.0 | 0.00 | 0.00 | 0.00 | 73 | 1016.5 |
| 20260507195305 | 56 | 187 | 0.0 | 0.0 | 0.00 | 0.00 | 0.00 | 73 | 1016.4 |
| 20260507194806 | 56 | 187 | 0.0 | 0.0 | 0.00 | 0.00 | 0.00 | 72 | 1016.4 |
| 20260507194251 | 56 | 187 | 0.0 | 0.0 | 0.00 | 0.00 | 0.00 | 72 | 1016.3 |
| 20260507193752 | 56 | 187 | 0.0 | 0.0 | 0.00 | 0.00 | 0.00 | 72 | 1016.4 |
| 20260507192731 | 57 | 187 | 0.0 | 0.0 | 0.00 | 0.00 | 0.00 | 71 | 1016.4 |
| 20260507191232 | 57 | 187 | 0.0 | 0.0 | 0.00 | 0.00 | 0.00 | 70 | 1016.3 |
| 20260507190732 | 57 | 187 | 0.0 | 0.0 | 0.00 | 0.00 | 0.00 | 70 | 1016.2 |
| 20260507190233 | 58 | 187 | 0.0 | 0.0 | 0.00 | 0.00 | 0.00 | 70 | 1016.2 |
| 20260507185213 | 58 | 187 | 0.0 | 0.0 | 0.00 | 0.00 | 0.00 | 69 | 1016.2 |
| 20260507184712 | 58 | 187 | 0.0 | 0.0 | 0.00 | 0.00 | 0.00 | 69 | 1016.2 |
| 20260507184208 | 58 | 187 | 0.0 | 0.0 | 0.00 | 0.00 | 0.00 | 68 | 1016.2 |
| 20260507183705 | 58 | 187 | 0.0 | 2.0 | 0.00 | 0.00 | 0.00 | 67 | 1016.2 |
| 20260507183208 | 58 | 187 | 0.0 | 2.0 | 0.00 | 0.01 | 0.00 | 67 | 1016.1 |
| 20260507182707 | 58 | 187 | 0.0 | 4.0 | 0.00 | 0.01 | 0.00 | 67 | 1016.2 |
| 20260507182204 | 59 | 187 | 0.0 | 4.0 | 0.00 | 0.01 | 0.00 | 66 | 1016.2 |
| 20260507181706 | 59 | 187 | 0.0 | 4.0 | 0.00 | 0.01 | 0.00 | 65 | 1016.1 |
| 20260507181146 | 59 | 187 | 0.0 | 4.0 | 0.00 | 0.01 | 0.00 | 64 | 1016.1 |
| 20260507180646 | 59 | 187 | 0.0 | 4.0 | 0.00 | 0.01 | 0.00 | 64 | 1016.1 |
| 20260507175133 | 59 | 187 | 0.0 | 2.0 | 0.00 | 0.01 | 0.00 | 64 | 1016.1 |
| 20260507174632 | 59 | 189 | 0.0 | 0.0 | 0.00 | 0.01 | 0.00 | 65 | 1016.0 |
| 20260507174133 | 59 | 117 | 0.0 | 0.0 | 0.00 | 0.01 | 0.00 | 65 | 1016.0 |
| 20260507173632 | 59 | 117 | 0.0 | 0.0 | 0.00 | 0.01 | 0.00 | 63 | 1016.0 |
| 20260507172634 | 60 | 118 | 0.0 | 0.0 | 0.00 | 0.01 | 0.00 | 64 | 1016.0 |
| 20260507172134 | 60 | 117 | 0.0 | 0.0 | 0.00 | 0.01 | 0.00 | 63 | 1016.0 |
| 20260507171133 | 60 | 116 | 0.0 | 5.0 | 0.00 | 0.01 | 0.00 | 63 | 1015.9 |
| 20260507170634 | 60 | 116 | 0.0 | 5.0 | 0.00 | 0.01 | 0.00 | 63 | 1015.9 |
| 20260507170127 | 60 | 116 | 0.0 | 5.0 | 0.00 | 0.01 | 0.00 | 63 | 1016.0 |
| 20260507165613 | 60 | 113 | 0.0 | 5.0 | 0.00 | 0.01 | 0.00 | 63 | 1015.9 |
| 20260507165113 | 60 | 113 | 0.0 | 5.0 | 0.00 | 0.01 | 0.00 | 62 | 1015.9 |
| 20260507164606 | 60 | 122 | 0.0 | 5.0 | 0.00 | 0.01 | 0.00 | 62 | 1015.9 |
| 20260507163605 | 60 | 123 | 2.0 | 4.0 | 0.00 | 0.01 | 0.00 | 61 | 1015.9 |
| 20260507163104 | 60 | 116 | 2.0 | 4.0 | 0.00 | 0.01 | 0.00 | 61 | 1015.9 |
| 20260507162605 | 60 | 117 | 2.0 | 5.0 | 0.00 | 0.01 | 0.00 | 62 | 1016.0 |
| 20260507162101 | 60 | 116 | 2.0 | 5.0 | 0.00 | 0.01 | 0.00 | 61 | 1015.9 |
| 20260507161601 | 60 | 116 | 2.0 | 5.0 | 0.00 | 0.01 | 0.00 | 61 | 1016.0 |
| 20260507161104 | 60 | 114 | 2.0 | 5.0 | 0.00 | 0.01 | 0.00 | 61 | 1015.9 |
| 20260507160556 | 60 | 96 | 2.0 | 7.0 | 0.00 | 0.01 | 0.00 | 62 | 1015.9 |
| 20260507160058 | 60 | 96 | 2.0 | 7.0 | 0.00 | 0.01 | 0.00 | 62 | 1015.9 |
| 20260507155555 | 60 | 126 | 2.0 | 5.0 | 0.00 | 0.01 | 0.00 | 62 | 1015.9 |
| 20260507155057 | 60 | 100 | 0.0 | 5.0 | 0.00 | 0.01 | 0.00 | 62 | 1015.9 |
| 20260507154556 | 60 | 108 | 2.0 | 7.0 | 0.00 | 0.01 | 0.00 | 63 | 1015.9 |
| 20260507153553 | 60 | 111 | 2.0 | 5.0 | 0.00 | 0.01 | 0.00 | 60 | 1015.8 |
| 20260507153051 | 60 | 111 | 2.0 | 5.0 | 0.00 | 0.01 | 0.00 | 61 | 1015.9 |
| 20260507152044 | 60 | 107 | 2.0 | 5.0 | 0.00 | 0.01 | 0.00 | 60 | 1015.8 |
| 20260507151044 | 61 | 111 | 2.0 | 5.0 | 0.00 | 0.01 | 0.00 | 59 | 1015.8 |
| 20260507150541 | 61 | 111 | 0.0 | 5.0 | 0.00 | 0.01 | 0.00 | 61 | 1015.8 |
| 20260507145032 | 61 | 112 | 0.0 | 5.0 | 0.00 | 0.01 | 0.00 | 59 | 1015.8 |
| 20260507144534 | 61 | 99 | 2.0 | 4.0 | 0.00 | 0.01 | 0.00 | 58 | 1015.7 |
| 20260507144032 | 61 | 99 | 2.0 | 4.0 | 0.00 | 0.01 | 0.00 | 59 | 1015.7 |
| 20260507143532 | 61 | 99 | 0.0 | 5.0 | 0.00 | 0.01 | 0.00 | 59 | 1015.7 |
| 20260507142533 | 61 | 123 | 0.0 | 7.0 | 0.00 | 0.01 | 0.00 | 56 | 1015.7 |
| 20260507142027 | 61 | 122 | 2.0 | 7.0 | 0.00 | 0.01 | 0.00 | 57 | 1015.8 |
| 20260507141019 | 61 | 123 | 2.0 | 5.0 | 0.00 | 0.01 | 0.00 | 58 | 1015.8 |
| 20260507140517 | 61 | 131 | 2.0 | 5.0 | 0.00 | 0.01 | 0.00 | 56 | 1015.9 |
| 20260507140013 | 61 | 121 | 2.0 | 7.0 | 0.00 | 0.01 | 0.00 | 59 | 1015.9 |
| 20260507135506 | 61 | 121 | 4.0 | 12.0 | 0.00 | 0.01 | 0.00 | 58 | 1015.9 |
| 20260507135005 | 61 | 152 | 4.0 | 12.0 | 0.00 | 0.01 | 0.00 | 57 | 1015.9 |
| 20260507134510 | 61 | 122 | 2.0 | 5.0 | 0.00 | 0.01 | 0.00 | 58 | 1015.9 |
| 20260507134005 | 61 | 119 | 2.0 | 5.0 | 0.00 | 0.01 | 0.00 | 60 | 1015.9 |
| 20260507133000 | 61 | 172 | 4.0 | 7.0 | 0.00 | 0.01 | 0.00 | 60 | 1016.0 |
| 20260507131953 | 61 | 164 | 2.0 | 5.0 | 0.00 | 0.01 | 0.00 | 61 | 1015.9 |
| 20260507131455 | 60 | 166 | 2.0 | 5.0 | 0.00 | 0.01 | 0.00 | 61 | 1015.8 |
| 20260507130450 | 60 | 143 | 2.0 | 5.0 | 0.00 | 0.01 | 0.00 | 59 | 1016.0 |
| 20260507125449 | 60 | 125 | 2.0 | 7.0 | 0.00 | 0.01 | 0.00 | 61 | 1016.0 |
| 20260507124947 | 60 | 121 | 2.0 | 4.0 | 0.00 | 0.01 | 0.00 | 60 | 1015.9 |
| 20260507123952 | 60 | 110 | 2.0 | 5.0 | 0.00 | 0.01 | 0.00 | 60 | 1015.9 |
| 20260507122935 | 60 | 157 | 2.0 | 5.0 | 0.00 | 0.01 | 0.00 | 61 | 1015.8 |
| 20260507121934 | 60 | 123 | 2.0 | 5.0 | 0.00 | 0.01 | 0.00 | 60 | 1015.8 |
| 20260507121433 | 60 | 117 | 2.0 | 5.0 | 0.00 | 0.01 | 0.00 | 61 | 1015.8 |
| 20260507120432 | 60 | 132 | 2.0 | 7.0 | 0.00 | 0.01 | 0.00 | 60 | 1015.8 |
| 20260507115932 | 60 | 132 | 2.0 | 7.0 | 0.00 | 0.01 | 0.00 | 60 | 1015.8 |
| 20260507115432 | 60 | 138 | 4.0 | 7.0 | 0.00 | 0.01 | 0.00 | 61 | 1015.9 |
| 20260507114931 | 60 | 161 | 2.0 | 7.0 | 0.00 | 0.01 | 0.00 | 60 | 1015.8 |
| 20260507114429 | 60 | 165 | 2.0 | 7.0 | 0.00 | 0.01 | 0.00 | 61 | 1015.8 |
| 20260507113930 | 60 | 165 | 2.0 | 7.0 | 0.00 | 0.01 | 0.00 | 60 | 1015.8 |
| 20260507113423 | 60 | 106 | 2.0 | 5.0 | 0.00 | 0.01 | 0.00 | 60 | 1015.9 |
| 20260507112928 | 60 | 106 | 2.0 | 5.0 | 0.00 | 0.01 | 0.00 | 58 | 1015.8 |
| 20260507112411 | 60 | 86 | 2.0 | 5.0 | 0.00 | 0.01 | 0.00 | 60 | 1015.8 |
| 20260507111905 | 60 | 74 | 2.0 | 5.0 | 0.00 | 0.01 | 0.00 | 62 | 1015.9 |
| 20260507111407 | 60 | 119 | 2.0 | 9.0 | 0.00 | 0.01 | 0.00 | 62 | 1015.9 |
| 20260507110905 | 60 | 145 | 4.0 | 9.0 | 0.00 | 0.01 | 0.00 | 63 | 1015.9 |
| 20260507110404 | 60 | 141 | 2.0 | 9.0 | 0.00 | 0.01 | 0.00 | 62 | 1015.9 |
| 20260507105905 | 60 | 25 | 2.0 | 9.0 | 0.00 | 0.01 | 0.00 | 62 | 1016.0 |
| 20260507105404 | 60 | 126 | 2.0 | 11.0 | 0.00 | 0.01 | 0.00 | 62 | 1016.0 |
| 20260507103907 | 61 | 114 | 2.0 | 7.0 | 0.00 | 0.01 | 0.00 | 60 | 1015.9 |
| 20260507103404 | 62 | 358 | 4.0 | 11.0 | 0.00 | 0.01 | 0.00 | 58 | 1015.9 |
| 20260507102905 | 62 | 162 | 4.0 | 11.0 | 0.00 | 0.01 | 0.00 | 61 | 1015.9 |
| 20260507102404 | 62 | 341 | 2.0 | 7.0 | 0.00 | 0.01 | 0.00 | 61 | 1016.0 |
| 20260507101903 | 62 | 113 | 2.0 | 7.0 | 0.00 | 0.01 | 0.00 | 61 | 1016.0 |
| 20260507101403 | 63 | 125 | 2.0 | 7.0 | 0.00 | 0.01 | 0.00 | 64 | 1016.0 |
| 20260507100906 | 62 | 109 | 2.0 | 7.0 | 0.00 | 0.01 | 0.00 | 61 | 1016.1 |
| 20260507100402 | 61 | 111 | 2.0 | 7.0 | 0.00 | 0.01 | 0.00 | 64 | 1015.9 |
| 20260507095906 | 61 | 235 | 2.0 | 5.0 | 0.00 | 0.01 | 0.00 | 65 | 1016.0 |
| 20260507095405 | 61 | 148 | 2.0 | 9.0 | 0.00 | 0.01 | 0.00 | 65 | 1015.9 |
| 20260507094905 | 60 | 106 | 2.0 | 9.0 | 0.00 | 0.01 | 0.00 | 64 | 1015.8 |
| 20260507094403 | 60 | 111 | 2.0 | 11.0 | 0.00 | 0.01 | 0.00 | 67 | 1015.9 |
| 20260507093849 | 59 | 108 | 4.0 | 11.0 | 0.00 | 0.01 | 0.00 | 67 | 1015.9 |
| 20260507093350 | 60 | 140 | 2.0 | 9.0 | 0.00 | 0.01 | 0.00 | 67 | 1015.9 |
| 20260507092843 | 60 | 191 | 2.0 | 4.0 | 0.00 | 0.01 | 0.00 | 67 | 1015.9 |
| 20260507092341 | 59 | 191 | 2.0 | 7.0 | 0.00 | 0.01 | 0.00 | 66 | 1015.9 |
| 20260507091841 | 59 | 161 | 2.0 | 7.0 | 0.00 | 0.01 | 0.00 | 67 | 1015.9 |
| 20260507090838 | 59 | 10 | 2.0 | 7.0 | 0.00 | 0.01 | 0.00 | 68 | 1015.9 |
| 20260507090338 | 59 | 20 | 2.0 | 7.0 | 0.00 | 0.01 | 0.00 | 70 | 1015.8 |
| 20260507085835 | 58 | 25 | 4.0 | 7.0 | 0.00 | 0.01 | 0.00 | 71 | 1015.9 |
| 20260507085334 | 58 | 25 | 2.0 | 5.0 | 0.00 | 0.01 | 0.00 | 71 | 1015.9 |
| 20260507084332 | 58 | 25 | 2.0 | 5.0 | 0.00 | 0.01 | 0.00 | 72 | 1015.9 |
| 20260507083829 | 58 | 106 | 2.0 | 4.0 | 0.00 | 0.01 | 0.00 | 71 | 1015.8 |
| 20260507082832 | 57 | 112 | 2.0 | 7.0 | 0.00 | 0.01 | 0.00 | 72 | 1015.9 |
| 20260507082327 | 57 | 114 | 2.0 | 11.0 | 0.00 | 0.01 | 0.00 | 72 | 1015.8 |
| 20260507081829 | 56 | 119 | 2.0 | 11.0 | 0.00 | 0.01 | 0.00 | 74 | 1015.8 |
| 20260507080323 | 55 | 91 | 0.0 | 0.0 | 0.00 | 0.01 | 0.00 | 79 | 1015.8 |
| 20260507074804 | 53 | 85 | 0.0 | 0.0 | 0.00 | 0.01 | 0.00 | 81 | 1015.7 |
| 20260507073306 | 53 | 86 | 0.0 | 2.0 | 0.00 | 0.01 | 0.00 | 84 | 1015.5 |
| 20260507072805 | 52 | 86 | 0.0 | 0.0 | 0.00 | 0.01 | 0.00 | 84 | 1015.5 |
| 20260507072306 | 52 | 86 | 0.0 | 2.0 | 0.00 | 0.01 | 0.00 | 85 | 1015.5 |
| 20260507071751 | 52 | 86 | 0.0 | 4.0 | 0.00 | 0.01 | 0.00 | 85 | 1015.5 |
| 20260507071252 | 51 | 86 | 2.0 | 4.0 | 0.00 | 0.01 | 0.00 | 85 | 1015.4 |
| 20260507070753 | 51 | 87 | 2.0 | 4.0 | 0.00 | 0.01 | 0.00 | 86 | 1015.4 |
| 20260507065746 | 51 | 89 | 2.0 | 4.0 | 0.00 | 0.01 | 0.00 | 87 | 1015.4 |
| 20260507065240 | 51 | 89 | 2.0 | 4.0 | 0.00 | 0.01 | 0.00 | 87 | 1015.3 |
| 20260507064737 | 51 | 89 | 2.0 | 4.0 | 0.00 | 0.01 | 0.00 | 87 | 1015.4 |
| 20260507063235 | 51 | 92 | 0.0 | 4.0 | 0.00 | 0.01 | 0.00 | 89 | 1015.2 |
| 20260507062231 | 50 | 93 | 0.0 | 0.0 | 0.00 | 0.01 | 0.00 | 89 | 1015.1 |
| 20260507061734 | 50 | 93 | 0.0 | 0.0 | 0.00 | 0.01 | 0.00 | 89 | 1015.1 |
| 20260507061230 | 50 | 93 | 0.0 | 0.0 | 0.00 | 0.01 | 0.00 | 89 | 1015.0 |
| 20260507060732 | 50 | 93 | 0.0 | 0.0 | 0.00 | 0.01 | 0.00 | 89 | 1014.9 |
| 20260507060231 | 50 | 93 | 0.0 | 0.0 | 0.00 | 0.01 | 0.00 | 89 | 1014.9 |
| 20260507055734 | 50 | 93 | 0.0 | 0.0 | 0.00 | 0.01 | 0.00 | 89 | 1014.9 |
| 20260507055232 | 50 | 93 | 0.0 | 0.0 | 0.00 | 0.01 | 0.00 | 89 | 1014.8 |
| 20260507054730 | 50 | 93 | 0.0 | 0.0 | 0.00 | 0.01 | 0.00 | 89 | 1014.7 |
| 20260507054235 | 50 | 93 | 0.0 | 0.0 | 0.00 | 0.01 | 0.00 | 89 | 1014.7 |
| 20260507053235 | 50 | 93 | 0.0 | 0.0 | 0.00 | 0.01 | 0.00 | 90 | 1014.7 |
| 20260507052230 | 49 | 93 | 0.0 | 0.0 | 0.00 | 0.01 | 0.00 | 90 | 1014.7 |
| 20260507051732 | 49 | 93 | 0.0 | 0.0 | 0.00 | 0.01 | 0.00 | 90 | 1014.7 |
| 20260507051231 | 49 | 93 | 0.0 | 0.0 | 0.00 | 0.01 | 0.00 | 89 | 1014.5 |
| 20260507050733 | 49 | 93 | 0.0 | 0.0 | 0.00 | 0.01 | 0.00 | 89 | 1014.5 |
| 20260507050230 | 49 | 93 | 0.0 | 0.0 | 0.00 | 0.01 | 0.00 | 89 | 1014.4 |
| 20260507045733 | 49 | 93 | 0.0 | 0.0 | 0.00 | 0.01 | 0.00 | 89 | 1014.4 |
| 20260507043734 | 49 | 93 | 0.0 | 0.0 | 0.00 | 0.01 | 0.00 | 89 | 1014.3 |
| 20260507043234 | 49 | 93 | 0.0 | 0.0 | 0.00 | 0.01 | 0.00 | 89 | 1014.2 |
| 20260507042730 | 49 | 93 | 0.0 | 0.0 | 0.00 | 0.01 | 0.00 | 89 | 1014.1 |
| 20260507042229 | 49 | 93 | 0.0 | 0.0 | 0.00 | 0.01 | 0.00 | 89 | 1014.1 |
| 20260507041731 | 49 | 93 | 0.0 | 0.0 | 0.00 | 0.01 | 0.00 | 89 | 1014.1 |
| 20260507040733 | 49 | 93 | 0.0 | 0.0 | 0.00 | 0.01 | 0.00 | 88 | 1014.0 |
| 20260507035733 | 49 | 93 | 0.0 | 0.0 | 0.00 | 0.01 | 0.00 | 88 | 1013.9 |
| 20260507035233 | 49 | 93 | 0.0 | 0.0 | 0.00 | 0.01 | 0.00 | 88 | 1013.9 |
| 20260507034730 | 49 | 93 | 0.0 | 0.0 | 0.00 | 0.01 | 0.00 | 88 | 1013.9 |
| 20260507034230 | 49 | 93 | 0.0 | 0.0 | 0.00 | 0.01 | 0.00 | 88 | 1013.9 |
| 20260507033233 | 50 | 93 | 0.0 | 0.0 | 0.00 | 0.01 | 0.00 | 88 | 1013.8 |
| 20260507032732 | 50 | 93 | 0.0 | 0.0 | 0.00 | 0.01 | 0.00 | 88 | 1013.8 |
| 20260507032231 | 50 | 93 | 0.0 | 0.0 | 0.00 | 0.01 | 0.00 | 88 | 1013.8 |
| 20260507031732 | 50 | 93 | 0.0 | 0.0 | 0.00 | 0.01 | 0.00 | 88 | 1013.8 |
| 20260507030706 | 50 | 93 | 0.0 | 0.0 | 0.00 | 0.02 | 0.00 | 88 | 1013.8 |
| 20260507030204 | 50 | 93 | 0.0 | 0.0 | 0.00 | 0.02 | 0.00 | 88 | 1013.7 |
| 20260507025707 | 50 | 93 | 0.0 | 0.0 | 0.00 | 0.02 | 0.00 | 88 | 1013.7 |
| 20260507025203 | 50 | 93 | 0.0 | 0.0 | 0.00 | 0.02 | 0.00 | 87 | 1013.7 |
| 20260507024706 | 50 | 93 | 0.0 | 0.0 | 0.00 | 0.02 | 0.00 | 87 | 1013.6 |
| 20260507023642 | 50 | 93 | 0.0 | 0.0 | 0.00 | 0.02 | 0.00 | 87 | 1013.7 |
| 20260507023137 | 50 | 93 | 0.0 | 0.0 | 0.00 | 0.02 | 0.00 | 87 | 1013.6 |
| 20260507022636 | 50 | 93 | 0.0 | 0.0 | 0.00 | 0.02 | 0.00 | 87 | 1013.7 |
| 20260507022136 | 50 | 93 | 0.0 | 0.0 | 0.00 | 0.02 | 0.00 | 86 | 1013.6 |
| 20260507021638 | 50 | 93 | 0.0 | 0.0 | 0.00 | 0.02 | 0.00 | 86 | 1013.6 |
| 20260507021136 | 50 | 93 | 0.0 | 0.0 | 0.00 | 0.02 | 0.00 | 86 | 1013.7 |
| 20260507020634 | 50 | 93 | 0.0 | 0.0 | 0.00 | 0.02 | 0.00 | 86 | 1013.5 |
| 20260507020133 | 50 | 93 | 0.0 | 0.0 | 0.00 | 0.02 | 0.00 | 86 | 1013.5 |
| 20260507015636 | 50 | 93 | 0.0 | 0.0 | 0.00 | 0.02 | 0.00 | 86 | 1013.4 |
| 20260507015146 | 50 | 93 | 0.0 | 0.0 | 0.00 | 0.02 | 0.00 | 86 | 1013.4 |
| 20260507014631 | 50 | 93 | 0.0 | 0.0 | 0.00 | 0.02 | 0.00 | 86 | 1013.3 |
| 20260507014130 | 50 | 93 | 0.0 | 0.0 | 0.00 | 0.02 | 0.00 | 85 | 1013.4 |
| 20260507013635 | 50 | 93 | 0.0 | 0.0 | 0.00 | 0.02 | 0.00 | 85 | 1013.3 |
| 20260507013132 | 50 | 93 | 0.0 | 0.0 | 0.00 | 0.02 | 0.00 | 85 | 1013.4 |
| 20260507012633 | 50 | 93 | 0.0 | 0.0 | 0.00 | 0.02 | 0.00 | 85 | 1013.4 |
| 20260507012132 | 50 | 93 | 0.0 | 0.0 | 0.00 | 0.02 | 0.00 | 85 | 1013.4 |
| 20260507010634 | 50 | 93 | 0.0 | 0.0 | 0.00 | 0.02 | 0.00 | 85 | 1013.4 |
| 20260507010132 | 50 | 93 | 0.0 | 0.0 | 0.00 | 0.02 | 0.00 | 85 | 1013.3 |
| 20260507005124 | 50 | 93 | 0.0 | 0.0 | 0.00 | 0.02 | 0.00 | 85 | 1013.4 |
| 20260507004616 | 50 | 93 | 0.0 | 0.0 | 0.00 | 0.02 | 0.00 | 85 | 1013.3 |
| 20260507004120 | 50 | 93 | 0.0 | 0.0 | 0.00 | 0.02 | 0.00 | 84 | 1013.4 |
| 20260507003105 | 50 | 93 | 0.0 | 0.0 | 0.00 | 0.02 | 0.00 | 84 | 1013.3 |
| 20260507002104 | 51 | 93 | 0.0 | 0.0 | 0.00 | 0.02 | 0.00 | 84 | 1013.3 |
| 20260507001104 | 51 | 93 | 0.0 | 0.0 | 0.00 | 0.02 | 0.00 | 83 | 1013.2 |
| 20260507000607 | 51 | 93 | 0.0 | 0.0 | 0.00 | 0.02 | 0.00 | 83 | 1013.2 |
| 20260507000107 | 51 | 93 | 0.0 | 0.0 | 0.00 | 0.02 | 0.00 | 83 | 1013.2 |
| 20260506235105 | 51 | 93 | 0.0 | 0.0 | 0.00 | 0.02 | 0.00 | 83 | 1013.2 |
| 20260506234600 | 51 | 93 | 0.0 | 0.0 | 0.00 | 0.02 | 0.00 | 83 | 1013.1 |
| 20260506234054 | 51 | 93 | 0.0 | 0.0 | 0.00 | 0.02 | 0.00 | 83 | 1013.1 |
| 20260506233559 | 51 | 93 | 0.0 | 0.0 | 0.00 | 0.02 | 0.00 | 82 | 1013.1 |
| 20260506233047 | 51 | 93 | 0.0 | 0.0 | 0.00 | 0.03 | 0.00 | 82 | 1013.1 |
| 20260506232048 | 51 | 93 | 0.0 | 0.0 | 0.00 | 0.03 | 0.00 | 82 | 1013.0 |
| 20260506231542 | 51 | 93 | 0.0 | 0.0 | 0.00 | 0.03 | 0.00 | 82 | 1013.0 |
| 20260506231034 | 51 | 93 | 0.0 | 0.0 | 0.00 | 0.03 | 0.00 | 82 | 1013.0 |
| 20260506230532 | 51 | 93 | 0.0 | 0.0 | 0.00 | 0.03 | 0.00 | 82 | 1012.9 |
| 20260506225525 | 51 | 93 | 0.0 | 0.0 | 0.00 | 0.03 | 0.00 | 82 | 1012.8 |
| 20260506225016 | 51 | 93 | 0.0 | 0.0 | 0.00 | 0.03 | 0.00 | 82 | 1012.8 |
| 20260506224510 | 51 | 93 | 0.0 | 0.0 | 0.00 | 0.03 | 0.00 | 82 | 1012.7 |
| 20260506224010 | 51 | 93 | 0.0 | 0.0 | 0.00 | 0.03 | 0.00 | 81 | 1012.6 |
| 20260506223504 | 51 | 93 | 0.0 | 0.0 | 0.00 | 0.03 | 0.00 | 81 | 1012.6 |
| 20260506222958 | 51 | 93 | 0.0 | 0.0 | 0.00 | 0.03 | 0.00 | 81 | 1012.5 |
| 20260506222445 | 51 | 93 | 0.0 | 0.0 | 0.00 | 0.03 | 0.00 | 81 | 1012.5 |
| 20260506221942 | 51 | 93 | 0.0 | 0.0 | 0.00 | 0.03 | 0.00 | 81 | 1012.5 |
| 20260506221438 | 51 | 93 | 0.0 | 0.0 | 0.00 | 0.04 | 0.00 | 81 | 1012.4 |
| 20260506220933 | 51 | 93 | 0.0 | 0.0 | 0.00 | 0.04 | 0.00 | 81 | 1012.4 |
| 20260506220431 | 51 | 93 | 0.0 | 0.0 | 0.00 | 0.04 | 0.00 | 81 | 1012.5 |
| 20260506215934 | 51 | 93 | 0.0 | 0.0 | 0.00 | 0.04 | 0.04 | 81 | 1012.4 |
| 20260506215434 | 51 | 93 | 0.0 | 0.0 | 0.00 | 0.05 | 0.04 | 81 | 1012.4 |